Regional Weather Roundup
Issued by NWS

Home | Current Version | Previous Version | Graphics & Text | Print | Product List | Glossary On
Versions: 1 2 3 4 5 6 7 8 9 10 11 12 13 14 15 16 17 18 19 20 21 22 23 24 25 26 27 28 29 30 31 32 33 34 35 36 37 38 39 40 41 42 43 44 45 46 47 48 49 50
000
ASUS43 KOAX 271310
RWRNE

WEATHER ROUNDUP FOR NEBRASKA
NATIONAL WEATHER SERVICE OMAHA NE
800 AM CDT MON APR 27 2015

NOTES: SATELLITE DATA IS BEING USED TO AUGMENT CLOUD COVER ABOVE
       12000 FEET.
       "FAIR" INDICATES FEW OR NO CLOUDS BELOW 12,000 FEET WITH NO
       SIGNIFICANT WEATHER AND/OR OBSTRUCTIONS TO VISIBILITY.

  * THESE STATIONS DO NOT REPORT WEATHER SUCH AS RAIN...SNOW OR FOG.

NEZ001>004-019>022-054>056-271400-
NEBRASKA PANHANDLE

CITY           SKY/WX    TMP DP  RH WIND       PRES   REMARKS
SCOTTSBLUFF    CLOUDY    45  32  60 N5        30.22R
ALLIANCE       CLOUDY    44  41  89 CALM      30.21R
CHADRON        CLOUDY    45  42  89 CALM      30.22R
KIMBALL        DRZL/FOG  40  40  99 NE5       30.19R VSB 1
SIDNEY         CLOUDY    43  40  89 NE7       30.21R FOG
$$

NEZ057>060-069>072-079>082-271400-
SOUTHWEST NEBRASKA

CITY           SKY/WX    TMP DP  RH WIND       PRES   REMARKS
IMPERIAL       PTSUNNY   42  39  89 NE6       30.19R
LEXINGTON      PTSUNNY   37  35  93 N3        30.20R FOG
MCCOOK         CLOUDY    41  36  82 N7        30.18R
OGALLALA       MOSUNNY   44  41  92 N5        30.21R
$$

NEZ005>010-023>029-035>040-094-271400-
NORTH CENTRAL NEBRASKA

CITY           SKY/WX    TMP DP  RH WIND       PRES   REMARKS
VALENTINE      MOSUNNY   36  32  85 W3        30.23R
AINSWORTH      MOSUNNY   40  35  83 CALM      30.22R
BROKEN BOW     SUNNY     42  37  82 NW5       30.20R
O`NEILL        MOSUNNY   42  35  78 W5        30.21R
ORD            SUNNY     39  35  86 NW7       30.20R WCI  34
THEDFORD       SUNNY     37  37  97 W3        30.23R FOG
$$

NEZ041-046>049-061>064-073>077-083>087-271400-
SOUTH CENTRAL NEBRASKA

CITY           SKY/WX    TMP DP  RH WIND       PRES   REMARKS
GRAND ISLAND   MOSUNNY   42  37  82 N5        30.21R
AURORA         MOSUNNY   42  40  90 N5        30.20R
HASTINGS       PTSUNNY   39  35  86 NE5       30.18R
HEBRON         CLOUDY    40  34  78 NE5       30.17S
HOLDREGE       CLOUDY    38  35  89 N7        30.19R WCI  33
KEARNEY *      PTSUNNY   39  34  81 N7        30.20R WCI  34
YORK           MOSUNNY   41  39  93 N5        30.20R
$$

NEZ011>018-030>034-042>045-271400-
NORTHEAST NEBRASKA

CITY           SKY/WX    TMP DP  RH WIND       PRES   REMARKS
NORFOLK        MOSUNNY   41  35  79 CALM      30.21R
ALBION         SUNNY     40  35  84 NW5       30.21R
BLAIR          SUNNY     45  34  66 N8        30.19R
COLUMBUS *     MOSUNNY   41  34  75 CALM      30.22R
FREMONT        MOSUNNY   44  37  78 CALM      30.20R
TEKAMAH        MOSUNNY   43  36  76 N6        30.21R
WAYNE          MOSUNNY   37  31  80 CALM      30.22R
$$

NEZ050>053-065>068-078-088>093-271400-
SOUTHEAST NEBRASKA

CITY           SKY/WX    TMP DP  RH WIND       PRES   REMARKS
LINCOLN        MOSUNNY   42  37  82 N3        30.21R
OMAHA EPPLEY   PTSUNNY   42  38  85 N7        30.20R
BEATRICE       CLOUDY    40  35  81 NE8       30.18R WCI  35
FALLS CITY     CLOUDY    44  35  70 CALM      30.17R
NEBRASKA CITY  MOSUNNY   44  32  63 N5        30.18R
PLATTSMOUTH    MOSUNNY   44  35  72 CALM      30.19R
$$

NEZ044-045-051>053-067-271400-
OMAHA AREA

CITY           SKY/WX    TMP DP  RH WIND       PRES   REMARKS
OMAHA EPPLEY   PTSUNNY   42  38  85 N7        30.20R
BLAIR          SUNNY     45  34  66 N8        30.19R
FREMONT        MOSUNNY   44  37  78 CALM      30.20R
MILLARD        MOSUNNY   44  38  78 W3        30.19R
OFFUTT AFB     MOSUNNY   43  38  82 N3        30.18R
PLATTSMOUTH    MOSUNNY   44  35  72 CALM      30.19R
WAHOO          FAIR      43  36  76 N7        30.20R
$$



USA.gov is the U.S. government's official web portal to all federal, state and local government web resources and services.